Starlink 5655

operational
NORAD ID: 55336 Int'l Des: 2023-013 Owner: SPXS Country: US Constellation: starlink
LEOCIRCULAR

Über Starlink 5655

Beschreibung wird geladen...

Live-Position

3D-Globus wird geladen...

Nächste Überflüge

Höhenverlauf

Altitude vs Time

uPlot chart will show altitude changes over time

Zweizeiliger Elementsatz

1 55336U 23013F 25303.90932120 -.00000552 00000-0 -25771-4 0 9990
2 55336 43.0037 272.7159 0001039 273.8656 86.2067 15.02536522152338
Epoch: 30. Okt. 2025 • Age: 36 hours

Aktueller Status

Höhe 560.6 km
Geschwindigkeit 7.58 km/s
Subsatellitenpunkt -9.69°S, 92.63°W
Startdatum 26. Jan. 2023
Alter 2.7 years
Typ internet

Technische Details

Klassifizierung Payload
Masse 305.00 kg
Trockenmasse 290.00 kg
Gesamtmasse 305.00 kg
Länge 0.20 m
Durchmesser 2.80 m
Spannweite 9.00 m
Form Box + pan
Hersteller SPXS
Bus-Typ Starlink
Phasenstatus In Orbit
Besitzer/Staat SPXS/US

Große Konstellationen

Loading constellations...